Alice Springs, Australia

11:19 AM ACST on December 14, 2019 (GMT +0930)
Alice Springs

Weather History for YBAS - August, 2019

Change the Weather History Date:

Friday, August 2, 2019

  Actual Average Record
Temperature  
Mean Temperature 47 °F -  
Max Temperature 61 °F 73 °F 84 °F (2007)
Min Temperature 33 °F 43 °F 26 °F (1997)
Degree Days  
Heating Degree Days 18    
Moisture  
Dew Point 26 °F    
Average Humidity 41    
Maximum Humidity 70    
Minimum Humidity 14    
Precipitation  
Precipitation 0.00 in 0.02 in - ()
Sea Level Pressure  
Sea Level Pressure 30.38 in    
Wind  
Wind Speed 8 mph ()    
Max Wind Speed 17 mph    
Max Gust Speed -    
Visibility 6.2 miles    
Events      
Averages and records for this station are not official NWS values.
T = Trace of Precipitation, MM = Missing Value Source: Averaged Metar Reports

Daily Weather History Graph

Daily Weather History Graph

Search for Another Location

Airport or City:

Astronomy

Aug. 02, 2019 Rise Set
Actual Time 7:09 AM ACST 6:12 PM ACST
Civil Twilight 6:45 AM ACST 6:35 PM ACST
Nautical Twilight 6:18 AM ACST 7:03 PM ACST
Astronomical Twilight 5:51 AM ACST 7:29 PM ACST
Moon 8:02 AM ACST (8/2) 7:28 PM ACST (8/2)
Length of Visible Light 11h 49m
Length of Day
11h 02m
New Moon, 1% of the Moon is Illuminated
Aug 2
New Moon
Aug 8
First Quarter
Aug 15
Full
Aug 24
Last Quarter
Aug 30
New

Hourly Weather History & Observations

Time (ACST) Temp. Windchill Dew Point Humidity Pressure Visibility Wind Dir Wind Speed Gust Speed Precip Events Conditions
12:00 AM 44 °F - 28 °F 40% 30.40 in - South 6.9 mph - -   Clear
12:00 AM 44.6 °F 40.7 °F 28.4 °F 53% 30.42 in 6.2 mi South 6.9 mph - N/A   Unknown
12:30 AM 42 °F - 27 °F 42% 30.40 in - South 8.1 mph - -  
12:30 AM 42.8 °F 38.0 °F 26.6 °F 53% 30.42 in 6.2 mi South 8.1 mph - N/A   Unknown
1:00 AM 42.8 °F 38.6 °F 26.6 °F 53% 30.42 in 6.2 mi South 6.9 mph - N/A   Unknown
1:30 AM 42.8 °F 39.3 °F 28.4 °F 57% 30.42 in 6.2 mi South 5.8 mph - N/A   Unknown
2:00 AM 41.0 °F 36.4 °F 26.6 °F 57% 30.42 in 6.2 mi South 6.9 mph - N/A   Unknown
2:30 AM 40 °F - 27 °F 48% 30.40 in - South 6.9 mph - -  
2:30 AM 41.0 °F 36.4 °F 26.6 °F 57% 30.42 in 6.2 mi South 6.9 mph - N/A   Unknown
3:00 AM 39 °F - 27 °F 51% 30.40 in - South 8.1 mph - -   Clear
3:00 AM 39.2 °F 33.6 °F 26.6 °F 61% 30.39 in 6.2 mi South 8.1 mph - N/A   Unknown
3:30 AM 37 °F - 26 °F 53% 30.39 in - SSE 9.2 mph - -  
3:30 AM 37.4 °F 30.8 °F 26.6 °F 65% 30.39 in 6.2 mi SSE 9.2 mph - N/A   Unknown
4:00 AM 37.4 °F 32.1 °F 26.6 °F 65% 30.39 in 6.2 mi SSE 6.9 mph - N/A   Unknown
4:30 AM 37.4 °F 32.1 °F 26.6 °F 65% 30.39 in 6.2 mi South 6.9 mph - N/A   Unknown
5:00 AM 37.4 °F 32.8 °F 26.6 °F 65% 30.39 in 6.2 mi South 5.8 mph - N/A   Unknown
5:30 AM 37 °F - 27 °F 55% 30.40 in - SSE 8.1 mph - -  
5:30 AM 37.4 °F 31.4 °F 26.6 °F 65% 30.39 in 6.2 mi SSE 8.1 mph - N/A   Unknown
6:00 AM 37 °F - 27 °F 57% 30.39 in - SSE 6.9 mph - -   Clear
6:00 AM 37.4 °F 32.1 °F 26.6 °F 65% 30.39 in 6.2 mi SSE 6.9 mph - N/A   Unknown
6:30 AM 35 °F - 27 °F 61% 30.40 in - South 5.8 mph - -  
6:30 AM 35.6 °F 30.7 °F 26.6 °F 70% 30.42 in 6.2 mi South 5.8 mph - N/A   Unknown
7:00 AM 33.8 °F 28.6 °F 24.8 °F 70% 30.42 in 6.2 mi South 5.8 mph - N/A   Unknown
7:30 AM 33.8 °F 27.7 °F 24.8 °F 70% 30.42 in 6.2 mi South 6.9 mph - N/A   Unknown
8:30 AM 44 °F - 30 °F 45% 30.41 in - SE 5.8 mph - -  
8:30 AM 44.6 °F 41.4 °F 30.2 °F 57% 30.42 in 6.2 mi SE 5.8 mph - N/A   Unknown
9:00 AM 47 °F - 31 °F 41% 30.42 in - ESE 10.4 mph - -   Clear
9:00 AM 46.4 °F 41.5 °F 30.2 °F 53% 30.42 in - ESE 10.4 mph - N/A   Clear
9:30 AM 48 °F - 31 °F 39% 30.43 in - ESE 12.7 mph - -  
9:30 AM 48.2 °F - 30.2 °F 50% 30.45 in - ESE 12.7 mph - N/A   Clear
10:00 AM 50.0 °F - 32.0 °F 50% 30.45 in 6.2 mi ESE 15.0 mph - N/A   Unknown
10:30 AM 51.8 °F - 30.2 °F 44% 30.45 in - ESE 17.3 mph - N/A   Clear
11:00 AM 53.6 °F - 30.2 °F 41% 30.42 in 6.2 mi ESE 13.8 mph - N/A   Unknown
11:30 AM 53 °F - 28 °F 26% 30.42 in - ESE 13.8 mph - -  
11:30 AM 53.6 °F - 28.4 °F 38% 30.42 in 6.2 mi ESE 13.8 mph - N/A   Unknown
12:00 PM 55 °F - 28 °F 23% 30.41 in - ESE 11.5 mph - -   Clear
12:00 PM 55.4 °F - 28.4 °F 36% 30.42 in 6.2 mi ESE 11.5 mph - N/A   Unknown
12:30 PM 55 °F - 26 °F 20% 30.39 in - SSE 12.7 mph - -  
12:30 PM 55.4 °F - 24.8 °F 31% 30.39 in 6.2 mi SSE 12.7 mph - N/A   Unknown
1:00 PM 57.2 °F - 24.8 °F 29% 30.39 in 6.2 mi ESE 8.1 mph - N/A   Unknown
1:30 PM 57.2 °F - 24.8 °F 29% 30.36 in 6.2 mi SE 10.4 mph - N/A   Unknown
2:30 PM 60 °F - 25 °F 15% 30.33 in - SE 11.5 mph - -  
2:30 PM 60.8 °F - 24.8 °F 25% 30.33 in 6.2 mi SE 11.5 mph - N/A   Unknown
3:00 PM 61 °F - 25 °F 14% 30.32 in - SE 11.5 mph - -   Clear
3:00 PM 60.8 °F - 24.8 °F 25% 30.33 in 6.2 mi SE 11.5 mph - N/A   Unknown
3:30 PM 61 °F - 26 °F 16% 30.31 in - East 13.8 mph - -  
3:30 PM 60.8 °F - 26.6 °F 27% 30.30 in 6.2 mi East 13.8 mph - N/A   Unknown
4:00 PM 60.8 °F - 24.8 °F 25% 30.30 in 6.2 mi SE 12.7 mph - N/A   Unknown
4:30 PM 60.8 °F - 24.8 °F 25% 30.30 in 6.2 mi SE 12.7 mph - N/A   Unknown
5:00 PM 60.8 °F - 24.8 °F 25% 30.30 in 6.2 mi ESE 12.7 mph - N/A   Unknown
5:30 PM 60 °F - 24 °F 14% 30.31 in - SE 12.7 mph - -  
5:30 PM 59.0 °F - 23.0 °F 25% 30.30 in 6.2 mi SE 12.7 mph - N/A   Unknown
6:00 PM 58 °F - 24 °F 16% 30.32 in - SE 12.7 mph - -   Clear
6:00 PM 57.2 °F - 24.8 °F 29% 30.33 in 6.2 mi SE 12.7 mph - N/A   Unknown
6:30 PM 56 °F - 24 °F 18% 30.33 in - SE 8.1 mph - -  
6:30 PM 55.4 °F - 24.8 °F 31% 30.33 in 6.2 mi SE 8.1 mph - N/A   Unknown
7:00 PM 53.6 °F - 24.8 °F 33% 30.36 in 6.2 mi SE 8.1 mph - N/A   Unknown
7:30 PM 51.8 °F - 23.0 °F 33% 30.36 in 6.2 mi SE 6.9 mph - N/A   Unknown
8:00 PM 50.0 °F - 23.0 °F 35% 30.36 in 6.2 mi SE 8.1 mph - N/A   Unknown
8:30 PM 48 °F - 23 °F 25% 30.37 in - SSE 6.9 mph - -  
8:30 PM 48.2 °F - 23.0 °F 37% 30.36 in 6.2 mi SSE 6.9 mph - N/A   Unknown
9:00 PM 47 °F - 24 °F 28% 30.37 in - SSE 6.9 mph - -   Clear
9:00 PM 48.2 °F - 24.8 °F 40% 30.39 in 6.2 mi SSE 6.9 mph - N/A   Unknown
9:30 PM 47 °F - 24 °F 28% 30.38 in - South 6.9 mph - -  
9:30 PM 46.4 °F 42.9 °F 24.8 °F 43% 30.39 in 6.2 mi South 6.9 mph - N/A   Unknown
10:00 PM 44.6 °F 40.7 °F 23.0 °F 43% 30.39 in 6.2 mi South 6.9 mph - N/A   Unknown
10:30 PM 44.6 °F 41.4 °F 23.0 °F 43% 30.39 in 6.2 mi South 5.8 mph - N/A   Unknown
11:00 PM 44.6 °F 40.7 °F 23.0 °F 43% 30.39 in 6.2 mi South 6.9 mph - N/A   Unknown
11:30 PM 43 °F - 24 °F 33% 30.38 in - South 8.1 mph - -  
11:30 PM 42.8 °F 38.0 °F 23.0 °F 46% 30.39 in 6.2 mi South 8.1 mph - N/A   Unknown